User: anonymous
Location: Langangen
(59.1000°N, 9.8000°E)
Time: 07:22:45
(UTC+02:00)
Language:

Iridium 60 - Orbit

View from above orbital plane
View from above orbital plane
View from above satellite
View from above satellite

Ground track
Ground track

The orbit data is extracted from the following two-line orbital elements,

1 25276U 98019E   14293.49310867  .00000472  00000-0  16154-3 0   147
2 25276 086.3954 332.7814 0002269 109.2124 250.9318 14.34215933866930
Epoch (UTC): 20 October 2014 11:50:04
Eccentricity: 0.0002269
inclination: 86.3954°
perigee height: 776 km
apogee height: 779 km
right ascension of ascending node: 332.7814°
argument of perigee: 109.2124°
revolutions per day: 14.34215933
mean anomaly at epoch: 250.9318°
orbit number at epoch: 86693

The dashed part of the orbit path shows where the satellite is in the earth's shadow,  

DLR